GW0115 Weather Reports


time (UTC)temp
C
wind
direction
speed
KPH
gust
KPH
rain 1hr
cm
rain 24hr
cm
rain mn
cm
humidity
%
barometer
mb
20260904060103 17 0 0.0 0.0 0.00 0.00 0.00 89 1010.9
20260904054604 18 0 0.0 0.0 0.00 0.00 0.00 87 1010.8
20260904053105 18 0 0.0 0.0 0.00 0.00 0.00 85 1010.8
20260904051558 18 0 0.0 0.0 0.00 0.00 0.00 86 1010.9
20260904050137 18 0 0.0 0.0 0.00 0.00 0.00 86 1011.2
20260904044603 17 0 0.0 1.6 0.00 0.00 0.00 90 1011.3
20260904043103 17 0 0.0 0.0 0.00 0.00 0.00 91 1011.3
20260904041552 17 0 0.0 0.0 0.00 0.00 0.00 90 1011.4
20260904040106 17 0 0.0 0.0 0.00 0.00 0.00 90 1011.3
20260904034606 17 0 0.0 0.0 0.00 0.00 0.00 90 1011.4
20260904033055 18 0 0.0 0.0 0.00 0.00 0.00 89 1011.4
20260904031604 18 0 0.0 0.0 0.00 0.00 0.00 88 1011.6
20260904024606 18 0 0.0 0.0 0.00 0.00 0.00 87 1011.7
20260904023055 18 0 0.0 0.0 0.00 0.00 0.00 85 1011.7
20260904021559 19 0 0.0 0.0 0.00 0.00 0.00 84 1011.7
20260904020101 20 0 0.0 0.0 0.00 0.00 0.00 82 1011.7
20260904014611 20 0 0.0 0.0 0.00 0.00 0.00 78 1011.8
20260904013057 21 0 0.0 4.8 0.00 0.00 0.00 76 1011.6
20260904011609 21 0 0.0 4.8 0.00 0.00 0.00 75 1011.4
20260904010057 22 267 0.0 6.4 0.00 0.00 0.00 73 1011.3
20260904004602 23 0 0.0 12.9 0.00 0.00 0.00 70 1011.5
20260904003100 23 255 1.6 9.7 0.00 0.00 0.00 67 1011.4
20260904001554 23 0 0.0 0.0 0.00 0.00 0.00 69 1011.4
20260904000101 22 0 0.0 3.2 0.00 0.00 0.00 70 1011.1
20260903234558 21 0 0.0 0.0 0.00 0.00 0.00 76 1010.9
20260903233056 20 0 0.0 0.0 0.00 0.00 0.00 85 1010.7
20260903231612 21 0 0.0 0.0 0.00 0.00 0.00 85 1010.7
20260903230111 21 0 0.0 0.0 0.00 0.00 0.00 85 1010.8
20260903224602 21 0 0.0 0.0 0.00 0.00 0.00 83 1011.0
20260903223112 21 0 0.0 0.0 0.00 0.00 0.00 81 1010.9
20260903221603 22 0 0.0 0.0 0.00 0.00 0.00 77 1011.0
20260903220108 23 0 0.0 0.0 0.00 0.00 0.00 74 1010.6
20260903214611 23 0 0.0 1.6 0.00 0.00 0.00 69 1010.8
20260903213056 23 0 0.0 0.0 0.00 0.00 0.00 74 1010.9
20260903211615 24 0 0.0 0.0 0.00 0.00 0.00 75 1011.0
20260903210056 25 0 0.0 0.0 0.00 0.00 0.00 70 1011.3
20260903204603 26 0 0.0 0.0 0.00 0.00 0.00 74 1010.7
20260903203057 25 0 0.0 1.6 0.00 0.00 0.00 73 1010.8
20260903201557 25 0 0.0 0.0 0.00 0.00 0.00 79 1010.6
20260903200109 26 0 0.0 0.0 0.00 0.00 0.00 79 1010.5
20260903194559 26 0 0.0 0.0 0.00 0.00 0.00 78 1010.6
20260903193101 25 0 0.0 6.4 0.00 0.00 0.00 78 1010.7
20260903191601 25 0 0.0 0.0 0.00 0.00 0.00 79 1010.9
20260903190103 25 0 0.0 0.0 0.00 0.00 0.00 80 1010.9
20260903184603 24 0 0.0 0.0 0.00 0.00 0.00 81 1011.0
20260903183118 24 0 0.0 0.0 0.00 0.00 0.00 83 1011.3
20260903181610 24 0 0.0 0.0 0.00 0.00 0.00 82 1011.4
20260903180054 23 0 0.0 0.0 0.00 0.00 0.00 83 1011.6
20260903174602 23 0 0.0 0.0 0.00 0.00 0.00 84 1011.6
20260903173107 23 0 0.0 0.0 0.00 0.00 0.00 85 1011.8
20260903171607 23 0 0.0 0.0 0.00 0.00 0.00 86 1011.9
20260903170057 23 0 0.0 0.0 0.00 0.00 0.00 85 1012.0
20260903164557 22 0 0.0 0.0 0.00 0.00 0.00 87 1012.0
20260903163052 22 0 0.0 0.0 0.00 0.00 0.00 88 1012.3
20260903161616 21 0 0.0 0.0 0.00 0.00 0.00 88 1012.4
20260903160055 21 0 0.0 0.0 0.00 0.00 0.00 89 1012.7
20260903154605 21 0 0.0 0.0 0.00 0.00 0.00 89 1012.8
20260903153059 21 0 0.0 0.0 0.00 0.00 0.00 89 1012.9
20260903151609 21 0 0.0 0.0 0.00 0.00 0.00 88 1013.1
20260903150105 21 0 0.0 0.0 0.00 0.00 0.00 87 1013.0
20260903144600 21 0 0.0 0.0 0.00 0.00 0.00 86 1013.0
20260903143055 21 0 0.0 0.0 0.00 0.00 0.00 87 1013.0
20260903141555 21 0 0.0 0.0 0.00 0.00 0.00 89 1013.0
20260903140106 21 0 0.0 0.0 0.00 0.00 0.00 90 1013.2
20260903134609 20 0 0.0 0.0 0.00 0.00 0.00 90 1013.1
20260903133100 20 0 0.0 0.0 0.00 0.00 0.00 90 1013.2
20260903131602 20 0 0.0 0.0 0.00 0.00 0.00 90 1013.2
20260903130054 20 0 0.0 0.0 0.00 0.00 0.00 90 1013.1
20260903124604 20 0 0.0 0.0 0.00 0.00 0.00 91 1013.2
20260903123058 20 0 0.0 0.0 0.00 0.00 0.00 91 1013.2
20260903121559 20 0 0.0 0.0 0.00 0.00 0.00 90 1013.1
20260903120056 20 0 0.0 0.0 0.00 0.00 0.00 90 1013.1
20260903114556 20 0 0.0 0.0 0.00 0.00 0.00 91 1013.4
20260903113056 19 0 0.0 0.0 0.00 0.00 0.00 91 1013.3
20260903111554 19 0 0.0 0.0 0.00 0.00 0.00 92 1013.3
20260903110059 19 0 0.0 0.0 0.00 0.00 0.00 91 1013.3
20260903104601 18 0 0.0 0.0 0.00 0.00 0.00 91 1013.3
20260903103059 18 0 0.0 0.0 0.00 0.00 0.00 91 1013.3
20260903101557 18 0 0.0 8.0 0.00 0.00 0.00 91 1013.3
20260903100056 18 0 0.0 1.6 0.00 0.00 0.00 91 1013.2
20260903094608 18 0 0.0 0.0 0.00 0.00 0.00 91 1013.2
20260903093054 18 0 0.0 0.0 0.00 0.00 0.00 90 1013.0
20260903091603 18 0 0.0 1.6 0.00 0.00 0.00 90 1013.1
20260903090100 18 0 0.0 6.4 0.00 0.00 0.00 89 1013.4
20260903084600 18 0 0.0 9.7 0.00 0.00 0.00 89 1013.2
20260903083104 18 0 0.0 6.4 0.00 0.00 0.00 90 1013.3
20260903081555 18 0 0.0 4.8 0.00 0.00 0.00 90 1013.5
20260903080059 18 0 0.0 8.0 0.00 0.00 0.00 90 1013.5
20260903074557 18 0 0.0 11.3 0.00 0.00 0.00 90 1013.8
20260903073112 18 0 0.0 6.4 0.00 0.00 0.00 90 1013.7
20260903071602 18 0 0.0 4.8 0.00 0.00 0.00 90 1013.6
20260903070103 18 0 0.0 6.4 0.00 0.00 0.00 90 1013.6
20260903064558 18 0 0.0 0.0 0.00 0.00 0.00 89 1013.7
20260903063104 18 0 0.0 11.3 0.00 0.00 0.00 87 1013.9
20260903061600 18 0 0.0 6.4 0.00 0.00 0.00 86 1014.2